GFSGL_850_spd_000.txt.gz
Wind_Speed
45 43 42 42 44 46 45 43 40 37 34 30 26 25 24 24 24 23 22 23 24 26 28 31 32 33 37 40 39 40 38 36 42 68 66 70 56 49 47 47 49 52 55
47 45 44 44 45 46 46 43 39 36 32 27 26 25 24 23 22 22 23 23 26 28 29 31 33 36 38 38 39 40 39 37 37 46 61 61 62 50 47 49 51 52 56
48 48 48 47 47 47 46 42 39 35 31 27 26 24 23 21 21 22 24 25 26 28 30 32 35 36 38 38 38 39 39 35 37 40 51 50 57 53 53 52 56 53 48
46 49 49 49 47 44 43 40 37 33 30 28 26 23 22 20 22 22 24 26 27 30 32 33 35 34 36 36 35 38 41 42 42 44 46 47 46 46 45 45 51 44 45
45 47 49 49 46 40 41 40 37 33 30 28 25 22 20 21 21 22 24 25 28 32 33 34 33 32 32 31 34 37 39 43 43 44 47 45 44 43 42 42 44 46 54
44 47 47 47 44 40 41 41 38 34 31 28 24 22 20 20 19 22 25 27 30 32 33 32 32 34 35 30 32 34 37 42 46 46 48 48 48 48 47 46 45 42 48
43 44 47 46 43 39 42 41 38 34 30 25 23 20 20 18 19 23 25 28 30 30 31 31 32 34 36 39 38 39 42 42 42 47 53 51 52 49 49 49 46 45 50
41 43 44 43 41 40 44 43 38 33 27 23 21 21 18 17 20 23 26 27 28 29 29 30 33 36 36 36 41 45 46 45 45 47 51 54 52 52 54 56 54 53 54
40 42 43 41 40 42 46 43 37 32 26 22 25 20 18 16 20 23 23 25 26 27 29 30 29 38 33 34 40 46 51 50 48 44 46 49 51 51 49 49 55 52 54
38 40 41 42 41 45 47 42 36 31 25 29 21 20 17 16 19 20 20 20 24 26 30 33 36 29 32 37 43 46 51 47 47 48 51 54 46 48 49 45 49 53 48
37 39 41 41 42 46 46 41 36 30 30 23 24 18 16 15 16 17 15 15 20 26 32 36 36 31 37 38 34 40 39 40 45 46 45 39 42 46 50 48 52 55 54
36 38 41 43 47 50 46 40 35 31 25 25 21 17 14 12 13 13 12 12 16 24 30 35 34 35 35 34 32 32 35 36 40 37 38 37 35 40 46 49 49 51 55
39 40 44 45 51 51 45 40 33 26 27 25 20 16 11 11 10 9 9 10 16 21 27 27 32 35 35 36 34 30 35 29 34 36 38 39 37 40 37 40 48 47 51
41 41 43 49 55 51 45 38 31 30 29 23 19 14 11 9 6 7 13 16 20 24 26 30 29 31 32 34 37 36 39 34 33 37 38 41 41 38 40 44 45 41 43
42 41 44 54 54 50 43 36 33 31 26 22 17 14 10 6 3 6 9 14 18 18 23 26 30 33 36 39 38 38 40 41 36 40 40 41 41 36 39 37 36 36 43
44 45 49 58 58 50 43 36 32 27 24 21 17 12 7 4 2 2 5 9 13 15 22 27 30 34 36 38 40 42 41 45 40 44 43 42 41 38 42 43 36 37 34
48 49 54 60 54 45 42 39 36 28 25 21 17 12 8 4 3 2 6 8 12 15 22 26 30 34 36 38 40 42 43 47 42 46 47 45 38 44 39 39 37 35 39
49 50 59 63 55 48 42 38 33 32 30 23 18 13 10 5 4 2 5 7 9 15 22 27 30 32 36 39 41 43 46 47 46 52 48 43 45 41 40 38 36 35 36
52 55 62 60 52 46 42 37 34 30 26 22 19 16 12 9 5 2 4 8 13 18 22 25 28 30 34 38 42 44 45 43 48 52 49 48 45 41 40 38 37 36 36
52 54 64 61 55 48 40 38 34 30 27 23 20 16 13 10 6 2 2 8 12 16 20 24 27 30 33 38 41 45 47 44 49 51 55 51 47 42 40 40 38 38 37
49 55 59 53 49 44 41 37 33 30 27 23 20 17 14 11 7 2 4 9 14 17 20 23 26 29 32 36 41 44 47 47 47 53 60 56 50 45 42 39 38 38 37
49 56 53 49 43 41 38 35 32 29 27 24 21 18 15 11 6 1 4 9 13 16 19 22 25 27 31 35 40 44 47 49 47 58 64 59 51 48 46 44 41 34 32
53 52 47 42 39 37 36 33 31 28 26 23 19 16 13 9 4 2 6 9 13 14 16 20 25 27 28 32 35 39 44 48 45 62 63 61 55 53 49 47 41 34 30
51 46 43 40 36 34 33 31 29 26 22 20 17 15 10 6 2 3 7 10 12 14 16 19 23 26 29 29 33 36 39 46 42 59 59 60 57 56 51 49 44 36 25
46 43 39 36 34 32 31 28 26 23 21 19 16 12 8 5 1 3 7 10 13 15 17 19 22 25 29 26 30 35 37 45 46 56 60 60 60 57 53 51 49 38 27
39 35 33 32 32 31 28 26 22 21 19 17 13 9 6 3 2 4 7 11 14 16 18 19 21 23 26 26 28 33 39 42 44 54 58 59 60 60 59 57 54 48 38

GFSGL_850_spd_003.txt.gz
Wind_Speed
48 50 49 48 47 46 45 46 45 43 41 38 34 31 27 24 25 25 25 23 21 18 18 20 22 24 27 29 30 32 32 33 44 71 57 59 59 60 60 58 57 56 56
48 52 54 52 51 48 46 47 45 43 41 38 35 32 29 27 28 26 24 23 21 18 20 22 24 26 29 30 30 32 32 32 36 52 61 61 59 57 56 55 54 51 50
45 50 53 54 52 51 48 46 44 42 42 39 36 32 29 29 28 25 23 22 21 20 20 22 25 28 30 30 30 32 32 28 32 41 60 56 60 58 51 52 54 53 49
43 47 51 52 52 53 50 45 43 42 43 40 36 33 32 30 28 25 23 22 20 20 21 24 28 29 29 30 30 29 32 34 37 42 50 59 52 54 50 49 55 48 52
44 45 47 48 49 51 48 43 40 42 43 40 38 36 35 32 28 24 23 22 20 21 23 26 28 28 28 26 26 30 32 36 38 41 45 46 50 47 44 44 48 54 51
43 44 45 46 48 49 46 43 40 42 43 43 41 39 34 30 26 24 24 21 22 21 24 27 27 27 24 24 24 26 29 35 41 44 48 47 54 49 50 48 49 50 56
41 42 42 44 46 46 44 42 42 45 45 46 43 37 32 28 25 24 21 24 21 23 25 25 26 23 22 26 27 28 31 34 37 42 52 55 56 52 50 53 50 52 59
35 39 41 42 43 43 42 42 43 45 47 47 43 38 32 26 24 23 25 22 21 24 23 24 23 21 22 24 29 34 39 43 46 45 48 55 56 57 53 55 56 58 63
33 37 39 41 42 42 42 43 44 46 48 48 41 36 30 26 26 27 24 21 21 21 21 20 20 21 24 22 29 37 46 48 40 39 42 45 46 49 48 49 51 47 56
30 34 38 40 40 41 41 44 45 45 47 45 40 34 27 26 29 27 23 19 20 19 19 19 19 20 22 23 29 38 46 46 42 46 47 44 48 60 52 47 51 54 53
30 33 36 38 39 39 42 44 46 48 50 45 39 33 26 31 26 25 21 20 16 16 18 19 19 20 20 26 27 33 37 38 43 49 46 43 43 42 41 36 41 46 52
28 30 33 37 39 41 42 45 46 50 50 44 39 31 32 28 29 23 21 15 13 14 16 17 18 18 23 25 26 28 28 31 34 39 40 40 41 42 40 41 40 47 48
25 29 32 34 38 40 42 47 49 52 50 45 38 34 31 31 26 22 16 13 13 11 10 12 15 19 21 22 23 25 26 29 32 36 39 38 41 45 45 45 45 39 44
27 30 33 35 37 39 43 47 51 54 49 44 38 34 32 29 24 18 14 11 9 7 7 8 13 16 18 21 24 26 27 28 30 34 39 38 42 45 44 42 43 40 43
33 33 34 36 37 40 46 50 55 52 46 40 36 30 33 29 24 19 14 9 6 7 5 8 10 14 19 22 25 28 29 31 33 35 40 39 43 46 44 42 39 43 46
37 37 40 41 43 44 49 52 54 51 47 40 29 31 29 21 22 17 13 13 13 7 5 7 11 15 20 24 28 32 33 34 37 39 41 37 46 46 46 45 44 40 42
43 41 44 45 45 46 54 61 61 48 41 37 37 33 27 24 19 16 14 13 10 4 4 8 11 15 19 23 27 31 36 37 40 42 44 40 45 50 48 46 42 40 41
44 48 44 45 45 47 53 56 56 52 44 34 30 30 29 24 20 15 16 13 7 5 4 8 11 15 18 22 27 31 35 39 42 44 46 41 47 52 50 46 43 41 41
42 47 46 41 43 47 52 56 53 48 42 40 34 27 26 22 19 18 16 11 9 5 5 9 12 14 17 22 26 30 34 39 42 44 46 41 52 52 50 47 45 44 42
39 43 40 39 40 45 52 54 50 45 43 40 36 32 31 29 24 18 14 10 8 2 4 7 10 13 17 21 26 31 34 39 43 44 45 44 56 53 49 48 46 47 44
38 38 37 38 39 42 48 54 48 42 36 35 33 29 26 24 20 16 12 9 5 3 5 8 11 14 16 19 24 29 32 37 41 43 44 51 59 55 52 49 48 44 43
33 34 36 39 41 44 49 48 44 39 36 35 31 27 26 23 18 14 11 7 3 4 6 8 11 15 18 19 24 28 31 36 40 42 45 57 58 57 54 52 49 47 44
30 33 36 38 41 47 50 44 39 36 35 33 32 28 26 22 18 14 10 6 5 5 7 10 11 13 16 17 19 25 29 33 37 40 47 57 56 59 58 54 51 50 49
29 32 35 41 44 46 43 40 37 35 34 32 29 25 22 19 16 13 9 6 5 6 9 11 13 15 16 18 18 21 25 27 35 41 49 52 55 60 59 56 53 55 50
27 32 35 38 43 43 39 36 36 35 32 30 28 24 21 18 14 11 7 6 5 7 10 12 13 15 16 18 18 20 25 25 34 40 45 52 55 58 59 57 57 55 50
26 28 35 40 39 36 35 36 35 32 30 28 25 22 18 15 12 9 6 7 7 9 11 13 15 16 16 17 19 20 24 27 32 39 43 51 55 57 57 57 60 56 54

GFSGL_850_spd_006.txt.gz
Wind_Speed
42 45 49 49 50 49 46 44 45 45 44 42 42 42 39 36 33 29 26 24 25 24 23 21 20 18 19 20 23 26 28 30 42 54 49 54 53 54 55 56 57 55 52
40 46 47 52 53 53 52 49 47 47 44 42 43 43 41 38 35 33 29 27 26 24 23 21 19 18 19 21 24 27 29 31 36 51 56 55 55 54 55 56 58 56 52
44 47 48 51 54 57 56 54 51 49 45 45 45 46 44 40 37 34 31 29 27 25 23 21 19 19 20 23 25 29 30 33 35 42 55 55 54 53 55 55 59 60 55
44 47 48 50 52 54 55 55 54 52 47 47 48 47 45 41 40 38 34 31 28 26 23 22 20 19 20 23 27 29 30 32 35 39 47 53 54 53 51 53 55 50 50
45 49 49 47 49 53 54 52 52 51 48 47 47 48 47 46 43 40 36 32 29 27 24 22 21 19 22 25 27 27 29 30 32 37 46 51 53 47 42 51 54 57 55
52 53 52 52 50 53 50 50 50 48 46 46 49 50 50 48 44 40 37 33 30 27 25 24 20 20 21 24 25 23 24 25 31 35 41 44 55 50 48 49 53 54 63
53 54 54 52 52 50 48 48 48 47 46 48 51 52 51 47 44 42 38 33 30 27 25 23 20 20 22 23 22 23 22 21 25 31 40 44 53 51 53 57 54 55 63
49 51 50 51 49 46 47 47 46 46 47 50 52 52 50 48 46 43 39 33 30 27 25 21 20 20 21 19 22 23 25 27 30 32 39 43 47 49 48 53 57 58 59
39 40 43 46 46 46 46 46 46 47 48 50 51 51 51 48 46 42 37 33 28 25 23 22 20 21 16 19 20 23 26 31 33 34 38 39 38 42 46 49 53 53 61
32 36 40 42 44 42 43 44 44 45 46 50 49 50 49 48 45 40 37 31 26 26 26 21 20 16 18 17 17 21 31 35 35 36 39 42 41 41 37 31 35 43 47
26 31 34 36 39 38 39 39 41 44 47 49 48 49 50 46 40 38 36 29 28 28 24 21 16 15 16 17 16 23 28 28 32 35 37 40 39 38 36 34 32 37 46
26 25 27 30 32 35 37 38 39 42 45 47 47 48 48 45 41 38 35 27 31 26 23 18 14 14 15 15 18 21 23 24 28 32 35 38 40 40 39 37 37 40 43
27 25 23 25 29 30 32 36 38 41 44 47 49 51 50 47 42 40 32 31 32 28 25 18 17 14 11 12 16 19 21 21 25 30 35 38 40 41 43 42 40 45 48
34 29 26 25 26 27 29 33 35 42 46 48 50 53 53 50 45 39 34 30 27 25 22 16 14 11 9 10 14 16 17 20 25 29 35 39 41 43 46 42 46 48 51
37 34 33 35 36 34 32 32 36 41 45 47 52 55 55 51 46 35 32 32 28 23 18 17 13 10 11 13 13 15 18 21 25 29 34 39 42 43 47 43 42 50 50
37 39 38 36 40 39 39 40 42 46 46 47 48 52 52 45 39 36 32 28 24 24 19 15 11 11 12 14 14 15 17 21 24 29 33 38 41 43 47 45 42 48 50
43 39 36 39 43 43 41 42 42 35 41 36 33 47 49 43 34 32 27 22 23 20 16 13 11 11 11 13 14 16 19 20 25 29 33 38 41 44 45 42 48 47 50
41 44 43 38 41 41 42 41 41 42 37 34 29 37 39 33 31 28 28 26 26 20 16 12 11 10 11 13 14 16 18 21 26 31 34 38 42 44 43 46 49 49 50
37 38 39 44 45 41 38 38 37 36 39 42 38 32 36 33 32 28 30 25 23 18 14 12 11 10 12 13 15 16 19 22 27 32 35 39 43 46 42 49 51 50 50
33 35 38 40 40 36 35 34 35 40 41 43 42 45 44 42 40 36 27 26 21 17 12 11 9 10 13 14 15 17 20 23 27 32 36 40 45 45 47 50 52 53 52
35 36 37 35 34 34 33 36 41 45 45 43 47 46 46 46 39 31 29 24 20 15 12 10 9 11 12 13 15 18 21 24 26 31 36 41 45 46 51 51 52 52 52
30 30 30 29 29 30 32 39 45 46 47 50 47 44 42 36 34 29 27 23 17 14 11 8 9 12 13 13 15 19 21 24 26 31 36 41 45 51 50 52 53 52 51
20 22 22 23 23 27 34 40 44 47 49 50 47 44 39 38 32 29 24 20 16 12 9 9 10 12 13 13 15 18 21 24 25 29 36 42 46 50 51 52 53 52 52
13 16 19 22 25 30 35 39 41 47 47 45 46 40 37 36 31 26 21 17 13 10 9 9 11 12 13 13 14 16 18 21 22 26 33 42 45 48 51 53 53 52 53
11 15 18 23 28 32 34 36 39 40 43 43 39 35 35 30 26 22 18 14 11 9 9 10 12 13 14 14 15 16 16 18 19 23 33 40 40 46 50 51 51 53 52
10 14 18 22 27 29 32 35 39 41 40 37 33 32 30 26 22 18 15 12 10 10 10 11 13 14 15 14 14 15 16 17 20 23 33 38 38 44 49 50 50 51 52

GFSGL_850_spd_009.txt.gz
Wind_Speed
32 40 44 44 46 47 47 48 46 45 45 44 43 42 44 46 44 43 40 37 34 31 28 25 24 23 22 21 21 19 19 22 29 35 34 36 37 39 40 41 42 42 42
37 41 45 47 49 51 50 49 49 48 47 45 44 43 44 47 46 45 43 41 38 35 31 28 27 25 24 23 21 20 20 23 28 35 39 38 40 41 42 43 42 43 45
43 48 49 50 52 52 52 53 54 52 50 49 47 47 47 48 49 47 44 43 41 37 32 29 27 27 25 24 22 20 21 23 26 33 39 40 42 41 42 43 46 48 48
47 52 51 50 49 53 55 54 55 56 55 54 51 50 49 50 49 47 46 45 43 38 33 30 28 27 26 24 22 20 22 24 26 31 35 39 41 41 42 46 50 49 52
44 47 53 51 53 54 54 53 53 53 57 56 53 52 51 50 50 50 50 47 45 40 35 32 30 28 26 25 23 21 22 23 26 31 34 38 40 42 42 45 50 53 54
48 48 47 55 60 53 55 53 52 54 56 54 54 53 53 53 50 51 50 49 45 40 35 33 30 28 27 25 24 23 23 24 27 29 32 36 37 37 40 43 47 50 55
41 46 45 45 53 58 54 54 53 55 53 52 52 53 55 53 52 53 53 50 45 41 37 34 32 29 27 25 22 20 19 22 25 24 29 31 35 35 38 43 43 46 46
40 35 38 41 45 51 52 54 53 53 51 50 52 51 53 54 53 54 55 50 46 42 38 33 31 28 25 23 21 19 21 22 21 22 26 29 33 34 35 39 44 50 53
45 39 36 35 39 44 49 51 48 49 50 51 52 51 52 52 52 55 54 50 46 41 37 33 30 26 24 23 21 21 21 21 19 22 24 28 31 32 32 40 44 46 53
39 43 42 33 31 36 39 43 45 48 48 47 49 49 49 50 52 57 58 48 45 41 36 33 29 27 23 21 21 21 20 20 22 24 26 26 29 31 31 34 37 40 44
37 38 42 39 30 28 31 36 41 43 44 45 46 48 51 50 50 55 55 50 46 41 37 34 29 25 21 22 21 20 21 20 23 23 26 27 28 30 32 33 35 37 42
41 40 36 37 35 28 27 29 35 38 41 41 44 47 49 48 48 52 52 49 44 41 38 33 28 24 23 23 20 19 20 21 20 23 26 26 29 30 32 34 35 38 39
40 40 38 32 35 32 26 26 30 35 38 40 43 44 46 45 45 48 44 42 43 40 36 30 26 22 25 24 18 16 18 18 20 22 25 26 27 30 34 37 38 40 43
43 41 37 35 32 30 30 28 27 34 36 38 42 44 45 45 45 48 39 34 33 36 33 28 26 27 25 20 17 15 16 18 19 22 23 25 28 31 36 37 42 42 46
46 43 44 38 32 34 35 35 35 34 32 35 41 42 44 47 50 52 51 44 38 33 32 28 27 27 24 21 18 17 16 17 19 19 21 25 28 33 37 38 40 42 44
45 42 39 41 37 34 35 38 40 40 38 37 39 39 39 43 44 50 51 47 46 43 34 30 29 28 24 21 19 17 15 17 17 17 20 23 27 31 38 40 40 42 46
42 42 36 40 42 41 35 37 41 41 37 36 36 36 38 41 44 49 51 46 44 43 36 29 31 26 24 20 19 16 15 17 15 16 20 23 26 31 36 41 43 46 45
40 38 37 34 43 44 40 33 37 40 39 38 28 28 27 28 33 39 39 36 35 35 29 32 30 27 22 19 18 14 16 15 14 16 19 23 27 32 37 41 44 46 47
41 41 38 33 41 42 37 32 35 34 34 32 30 27 28 26 35 39 40 46 41 33 32 30 28 24 21 18 15 16 15 13 14 17 19 23 28 33 37 40 45 45 50
40 39 34 31 38 37 35 33 33 34 31 30 32 40 33 36 42 44 50 44 36 31 30 29 25 21 18 15 15 16 14 14 14 17 19 24 28 33 38 41 42 48 51
35 34 29 28 36 36 34 33 32 31 30 32 35 40 37 49 47 53 50 37 34 31 30 27 23 18 15 14 13 14 14 14 15 18 21 24 29 36 38 40 43 49 50
28 26 26 31 31 31 29 28 27 27 30 35 37 38 40 48 48 46 43 37 32 30 26 22 19 15 13 12 12 13 15 15 15 18 21 25 30 36 39 41 47 51 52
17 15 20 24 23 21 20 22 26 31 35 38 41 42 43 48 47 43 34 31 32 28 24 20 16 13 12 12 13 14 14 15 16 18 22 26 31 35 39 42 48 53 52
8 8 10 12 14 17 22 27 32 36 37 38 41 41 42 44 40 34 30 29 26 23 20 16 13 12 12 12 13 14 15 15 16 17 20 25 31 36 38 40 47 51 53
1 4 8 12 17 20 23 26 30 32 36 41 43 41 36 34 33 29 27 25 22 19 16 13 12 11 11 11 13 14 14 14 15 17 20 23 30 35 37 39 46 51 53
4 4 6 11 14 17 19 23 27 30 32 35 36 35 32 34 29 26 24 22 18 15 13 11 10 11 12 12 13 14 13 13 13 15 19 23 31 35 37 38 44 49 52

GFSGL_850_spd_015.txt.gz
Wind_Speed
25 25 25 22 20 23 26 30 33 34 37 39 39 41 45 49 51 53 54 53 51 50 48 46 45 41 39 35 31 28 26 24 24 22 17 15 12 11 13 15 16 17 18
28 28 27 25 25 24 24 25 29 31 36 40 41 42 45 47 50 54 57 56 55 54 51 50 49 45 43 38 34 31 27 25 23 22 21 18 15 14 16 17 18 19 18
30 30 29 29 29 28 27 25 28 30 34 36 41 46 48 47 50 53 56 57 57 56 53 53 52 50 47 43 39 34 30 27 25 24 24 22 20 18 18 19 19 20 17
32 33 32 30 31 32 30 29 28 30 32 34 39 42 49 48 50 53 56 60 58 58 57 55 56 53 50 46 42 37 33 31 28 28 28 25 23 20 19 18 18 20 15
35 32 34 34 32 32 33 32 32 32 32 34 35 41 46 47 51 54 55 59 60 60 61 60 59 55 51 47 43 41 38 35 33 31 31 27 25 23 18 17 15 16 13
39 37 35 35 35 34 35 34 33 33 36 34 37 38 44 49 51 53 53 57 61 61 63 63 61 58 54 50 47 43 39 39 37 35 33 30 26 24 18 14 14 14 12
36 39 41 41 40 37 35 34 34 34 33 35 35 36 39 46 49 53 52 55 59 60 62 64 64 61 56 54 51 46 43 40 37 33 33 30 26 22 18 14 14 14 16
38 39 41 42 44 43 39 39 33 33 34 33 32 36 35 41 45 48 51 54 58 57 58 62 64 63 60 58 53 50 47 44 41 38 35 31 25 22 18 15 15 16 17
37 41 43 44 47 47 47 44 43 39 35 35 33 32 34 39 39 38 47 53 56 57 58 60 62 63 61 59 55 51 48 45 40 38 35 30 25 20 20 16 13 15 18
41 44 44 46 48 50 50 50 47 43 43 36 35 33 32 35 34 35 38 45 52 57 59 58 60 62 61 60 56 53 50 45 41 39 35 29 27 21 18 16 14 14 14
44 46 48 49 50 51 53 52 52 48 43 42 39 33 33 33 33 34 38 42 48 54 56 57 60 60 57 55 54 52 47 43 42 37 32 30 27 22 19 17 14 14 13
51 52 52 52 53 55 55 56 53 51 46 44 42 39 32 35 33 34 33 41 47 49 54 55 54 53 53 54 53 46 43 43 39 36 34 31 28 22 20 17 14 15 14
58 59 59 58 57 57 58 57 55 51 49 44 42 40 41 38 37 32 32 37 50 52 47 46 48 45 52 52 49 47 45 44 41 39 35 30 24 21 19 17 15 15 14
61 64 65 64 62 60 57 57 55 51 45 44 40 42 41 42 40 33 29 31 45 49 44 39 39 39 44 48 43 42 47 43 40 36 29 25 24 23 20 18 16 16 17
62 63 62 59 59 58 57 53 53 50 40 41 41 39 39 41 42 36 28 34 45 48 44 36 33 35 41 41 44 42 39 39 36 29 27 27 27 23 20 18 15 17 18
55 53 48 46 47 49 51 55 51 40 35 38 38 36 39 37 33 33 25 30 40 50 46 42 39 45 51 50 48 47 44 38 35 36 31 29 26 23 20 17 15 16 17
45 46 45 42 41 40 39 38 44 46 33 31 33 34 37 36 32 29 23 21 38 43 46 47 43 48 52 52 51 50 43 40 36 31 30 29 25 23 18 15 15 16 18
43 43 43 42 40 37 37 37 36 37 37 32 30 27 30 32 31 25 23 23 37 42 48 46 47 50 53 52 48 45 43 38 33 32 30 27 23 19 17 14 14 16 18
39 40 39 39 39 39 37 40 39 36 36 34 31 27 21 29 25 31 23 32 38 47 45 45 49 44 43 47 47 46 42 36 32 31 28 24 22 18 14 13 13 14 18
38 38 37 37 37 37 36 35 34 33 32 28 30 27 23 17 27 33 27 29 32 41 45 45 42 38 41 44 45 42 38 34 31 28 24 21 18 15 13 12 12 15 18
35 34 34 34 34 33 32 30 28 26 24 27 26 24 20 18 29 34 26 28 34 35 42 42 34 35 36 39 37 36 33 29 26 24 21 18 15 12 12 11 12 15 18
31 32 31 30 29 28 29 29 25 22 23 22 21 18 14 19 27 30 27 32 31 31 30 31 31 31 30 32 34 31 26 25 24 21 19 16 13 12 11 12 13 16 19
24 25 24 23 21 19 16 13 13 13 13 13 11 11 12 19 26 25 25 27 25 24 24 27 25 24 27 28 24 20 20 20 17 17 15 13 12 11 11 11 14 18 21
21 21 20 18 17 15 13 10 8 5 5 6 8 9 10 17 18 18 19 19 21 23 23 20 20 26 27 23 20 20 17 16 15 13 12 11 10 10 11 12 15 19 23
20 19 19 18 17 16 14 11 7 3 2 3 6 8 10 13 16 15 18 20 21 21 22 24 24 21 18 17 16 14 14 13 12 11 11 11 10 10 11 14 18 21 24
22 21 20 19 19 18 16 15 13 10 9 8 7 7 9 14 18 20 22 23 23 22 22 21 19 17 15 13 13 10 10 11 11 11 10 10 10 11 13 16 19 22 27

GFSGL_850_spd_021.txt.gz
Wind_Speed
21 19 18 19 20 20 20 20 20 20 20 20 17 17 20 22 25 29 31 33 40 48 51 53 55 54 56 56 52 49 46 41 37 31 31 31 33 33 34 32 30 25 23
22 20 20 20 21 21 22 23 23 24 22 21 21 21 20 20 23 27 32 33 35 41 47 52 54 54 56 57 56 54 51 46 42 39 36 34 34 33 33 33 32 28 25
26 26 25 25 24 24 25 26 26 26 26 25 23 21 22 23 24 25 28 32 35 37 41 47 53 54 57 57 57 56 55 51 46 46 42 39 36 36 36 36 35 31 29
27 28 29 31 31 30 28 27 27 28 29 27 27 27 24 22 22 24 27 30 34 37 39 44 47 52 57 57 57 58 57 56 52 50 47 43 40 39 39 39 38 36 33
27 29 31 32 32 33 34 33 30 29 29 30 31 30 30 29 27 23 25 27 32 35 38 43 47 49 52 55 56 59 59 59 58 54 52 48 45 43 44 43 39 36 35
25 28 30 33 35 38 41 42 43 39 34 33 32 33 33 32 33 31 27 29 30 34 39 40 46 49 50 50 55 56 59 61 63 62 59 58 55 50 45 42 38 39 36
28 29 30 34 37 38 40 42 45 48 49 42 38 37 37 36 35 34 32 32 34 36 37 40 44 48 50 50 51 53 57 60 62 64 63 65 60 57 50 45 44 40 40
37 39 40 39 39 41 43 44 44 45 47 52 53 46 43 41 39 38 37 36 37 38 39 41 43 48 48 49 48 50 56 60 63 64 63 62 62 57 53 49 46 41 39
38 39 38 40 43 45 46 46 46 48 49 49 51 56 55 51 46 44 41 41 42 42 41 40 44 46 47 46 46 48 53 57 61 61 62 62 61 56 51 49 48 44 42
37 40 43 43 45 51 55 57 58 58 58 56 55 54 57 60 56 52 48 45 45 46 46 45 43 46 46 43 45 47 51 57 56 57 57 58 60 58 54 52 50 50 46
45 47 48 47 47 49 50 56 57 61 62 66 66 64 61 61 62 59 55 51 47 46 48 47 46 44 43 45 45 51 53 46 47 49 53 55 57 58 56 56 52 48 45
55 56 54 51 49 48 46 51 48 48 49 57 55 62 67 64 63 61 61 56 52 45 47 46 44 42 41 40 46 51 45 40 47 49 48 49 56 59 57 55 53 49 43
57 58 58 57 55 50 45 45 44 42 43 46 45 47 51 52 52 47 40 38 43 44 46 45 41 38 39 41 41 43 45 45 49 51 53 53 52 55 54 52 48 45 41
53 55 55 53 51 47 41 38 39 39 41 43 43 44 45 44 44 41 32 31 35 42 44 40 40 40 42 42 41 38 46 50 53 52 49 43 44 50 56 55 50 44 38
49 50 47 44 40 41 40 38 38 39 39 43 44 44 46 47 45 38 36 32 30 34 31 30 32 36 40 43 42 42 43 47 51 49 43 42 50 53 54 53 50 44 39
46 45 43 43 42 41 41 42 37 36 37 39 41 44 50 52 48 45 44 42 40 36 34 35 34 35 40 42 44 42 41 46 49 46 43 45 48 48 49 49 45 41 38
39 40 40 42 42 41 40 41 43 44 37 36 37 37 39 44 43 43 42 41 39 36 41 40 38 35 39 43 41 40 41 44 46 49 48 48 47 46 48 46 45 42 40
37 39 40 40 39 39 40 42 42 43 44 48 39 34 34 34 35 36 34 34 39 37 41 40 36 35 38 39 38 38 39 43 44 48 48 47 47 46 47 49 46 45 40
37 37 37 37 38 39 41 41 40 41 42 43 44 38 33 27 27 28 28 33 34 34 33 39 35 32 36 36 34 38 41 44 46 48 47 44 44 44 46 44 41 39 36
37 34 34 37 38 38 38 37 39 39 40 41 40 38 33 25 25 21 18 23 30 33 30 30 26 30 32 35 34 38 42 43 44 45 43 41 43 44 43 40 38 34 29
35 35 33 32 32 33 35 35 36 36 36 39 38 31 26 28 30 24 22 22 18 23 28 22 21 29 32 31 32 38 40 42 44 43 42 41 42 41 36 32 29 26 24
31 30 30 29 29 30 30 28 27 26 27 24 22 21 19 18 15 13 13 6 8 11 14 11 18 25 31 31 31 35 38 40 40 40 40 38 35 33 32 30 26 23 21
27 27 26 25 25 26 26 26 25 24 24 22 22 21 18 14 10 6 3 1 2 4 5 10 18 25 28 27 28 29 31 31 33 36 34 32 32 30 28 27 24 22 18
25 24 23 23 23 23 24 26 26 24 22 21 20 20 17 14 11 9 6 3 2 4 8 12 16 18 18 17 16 16 19 21 26 29 28 28 27 26 25 22 20 19 17
25 24 23 22 22 23 23 24 26 26 24 22 21 20 18 17 15 13 11 9 7 6 6 6 7 8 8 8 10 12 15 19 24 26 25 23 22 21 19 18 18 16 13
22 23 23 22 21 22 22 23 25 27 27 26 24 23 21 21 20 19 17 15 15 14 13 14 14 14 15 17 19 20 21 22 22 21 20 20 18 17 17 16 15 13 10

GFSGL_850_spd_024.txt.gz
Wind_Speed
18 17 17 18 18 20 19 18 19 20 22 22 21 19 17 16 16 20 22 23 27 32 34 37 42 44 48 52 53 52 51 49 47 40 39 36 35 33 33 34 35 35 32
22 23 22 22 23 22 22 22 22 21 21 24 24 23 23 21 19 19 20 21 25 30 32 35 37 38 43 47 50 53 53 52 51 46 44 43 40 36 34 35 38 38 36
25 26 26 27 27 27 26 26 25 24 23 24 26 26 25 24 24 24 24 21 23 27 29 32 36 36 40 43 48 52 52 51 52 52 47 48 45 41 38 38 39 40 39
25 27 29 28 29 30 32 33 34 33 33 30 28 28 28 28 26 25 25 27 28 28 29 30 32 36 39 41 44 50 51 52 51 55 55 51 50 48 43 41 43 44 45
23 25 27 29 32 34 36 37 40 40 40 40 40 36 33 32 32 31 29 27 28 30 33 33 33 35 37 40 43 46 49 52 51 54 58 57 56 53 52 49 46 44 45
27 29 30 32 34 38 40 41 41 41 43 45 46 46 45 42 37 36 35 35 33 33 33 34 36 36 36 39 41 45 48 52 53 54 57 63 64 62 56 53 47 48 49
30 33 35 37 38 39 39 40 42 44 45 45 45 47 50 49 47 45 41 41 40 39 37 36 36 36 37 39 39 41 47 53 55 52 56 61 61 67 62 56 53 52 52
35 37 38 38 41 43 45 47 48 50 52 54 54 53 53 53 53 52 51 49 48 47 44 41 40 39 38 38 39 41 43 48 55 56 58 57 57 58 63 60 57 52 52
38 39 39 40 43 47 50 53 55 55 57 59 60 62 63 62 58 58 57 54 55 55 53 49 45 43 42 37 39 43 44 49 49 50 57 55 55 54 55 51 56 54 54
38 41 44 47 48 49 50 51 53 52 54 56 63 65 65 68 66 63 60 51 54 60 60 57 53 49 44 41 39 41 46 51 47 47 51 54 54 53 56 57 55 59 58
44 48 51 51 52 51 52 51 52 52 53 55 57 62 64 65 68 64 58 45 48 50 52 57 59 54 50 44 41 42 47 43 45 45 46 47 52 61 58 56 55 57 58
51 52 53 52 52 52 51 51 49 45 44 46 47 51 50 49 49 48 45 43 43 45 51 50 51 52 49 42 36 42 43 42 45 46 46 49 49 54 60 58 58 54 54
50 51 51 51 51 48 46 43 42 39 37 40 40 42 45 42 43 42 41 41 42 44 48 49 46 42 38 37 38 40 42 45 47 47 47 50 51 47 48 55 54 53 52
48 49 49 49 49 44 41 40 40 40 39 39 40 44 47 47 45 43 42 40 37 37 30 44 45 41 41 41 42 43 42 46 51 52 49 46 46 45 47 52 55 54 50
45 46 47 47 43 41 39 38 36 37 38 41 44 46 46 47 44 43 42 43 43 39 37 35 35 39 38 38 39 41 43 46 49 50 46 47 47 47 47 49 47 45 49
43 44 43 41 41 40 40 42 35 33 34 36 39 41 46 46 45 43 42 41 40 38 42 47 44 36 36 33 32 36 42 44 48 48 47 48 46 46 48 48 48 48 45
41 41 39 39 39 38 39 41 43 43 37 36 36 36 38 40 39 39 38 37 35 34 41 42 42 38 36 33 31 33 40 44 44 46 47 46 46 47 49 50 49 49 46
38 36 36 37 38 38 39 40 42 44 46 48 41 37 37 36 35 33 32 31 33 33 37 37 39 40 38 36 33 32 33 39 40 43 44 46 48 49 49 49 50 49 44
36 35 35 37 36 36 36 37 38 40 42 45 47 45 38 36 31 30 31 29 30 33 30 33 34 38 37 35 32 31 33 36 39 42 43 47 50 51 49 49 48 46 45
33 35 35 34 33 33 34 36 38 38 39 38 38 38 35 38 35 32 29 28 26 26 27 28 29 19 30 33 28 31 32 35 38 40 43 45 46 47 47 46 44 42 42
32 32 31 32 31 31 32 32 32 34 35 35 35 33 29 29 27 26 26 24 22 19 18 20 19 22 22 20 24 30 33 34 36 39 41 42 42 42 39 38 38 38 41
28 28 28 28 28 29 29 29 29 30 29 30 30 29 26 24 22 20 18 17 16 13 6 6 10 9 15 20 25 29 29 32 35 37 37 38 36 35 35 35 35 35 33
23 25 24 24 25 26 26 27 27 28 27 26 27 28 28 26 23 22 20 17 15 13 8 4 5 10 14 18 22 23 23 26 29 32 32 31 31 32 31 31 31 32 32
20 22 24 23 23 24 23 25 26 27 27 28 28 28 28 27 26 23 21 18 16 14 11 9 7 3 2 5 6 8 10 13 17 23 24 26 27 28 29 29 30 29 27
17 19 21 22 23 23 23 23 25 26 27 28 29 29 29 29 29 28 26 23 20 17 15 13 11 8 5 3 2 4 6 8 10 15 17 22 25 27 27 27 26 24 22
13 15 17 19 20 20 22 23 23 24 25 26 26 27 27 27 27 28 27 26 26 25 24 23 21 17 15 15 13 11 9 8 11 12 16 19 21 22 22 22 21 19 17

GFSGL_850_spd_027.txt.gz
Wind_Speed
14 15 14 14 15 16 17 17 16 18 22 25 25 24 23 22 19 18 19 21 24 26 27 31 34 34 37 39 43 46 49 49 53 47 48 44 42 41 37 36 36 37 37
17 18 19 19 19 19 21 22 22 22 21 24 26 26 26 27 26 24 24 23 24 25 25 28 32 32 35 36 40 42 46 49 50 52 48 48 50 48 44 41 39 39 40
19 21 23 24 26 26 27 28 28 30 29 29 30 30 28 28 29 28 29 28 28 28 27 27 29 30 34 35 38 41 42 44 48 50 51 48 49 48 48 45 44 42 41
19 21 23 25 28 30 32 34 36 37 38 37 37 37 35 36 35 33 33 34 34 33 31 30 30 30 32 32 35 39 40 42 44 47 49 51 51 52 50 50 50 46 44
24 25 26 29 32 34 36 37 37 37 38 39 41 42 42 41 41 40 39 39 39 39 39 37 34 32 31 31 33 35 39 40 41 46 49 52 54 54 57 55 52 49 50
26 27 29 33 35 36 37 39 42 45 47 48 49 49 48 48 48 47 46 46 45 45 46 44 41 37 36 33 32 32 36 40 43 44 46 48 54 56 57 58 55 55 54
26 28 32 34 36 37 40 43 46 48 51 54 57 58 59 58 56 54 53 51 51 51 51 51 50 46 41 39 36 35 34 38 43 46 49 53 43 47 53 56 60 61 62
29 32 34 35 37 40 44 48 51 52 54 56 57 58 59 61 60 59 50 42 50 55 55 55 55 54 51 45 42 40 39 39 41 45 54 55 51 46 47 48 51 57 59
31 33 35 39 44 47 49 50 50 51 53 54 56 58 57 63 58 46 41 43 49 56 57 59 57 58 58 53 48 47 45 44 42 41 42 50 52 46 47 42 48 51 55
33 36 41 44 46 47 47 48 48 49 52 52 55 54 54 58 55 44 41 43 47 50 56 57 56 50 52 49 45 49 50 51 45 43 44 44 44 54 47 52 51 54 55
38 42 44 44 45 45 47 47 48 48 48 47 46 44 43 42 44 36 34 36 41 44 45 47 46 44 43 43 42 47 53 52 47 44 44 44 44 43 50 59 55 53 53
41 42 43 42 43 44 44 46 45 42 42 42 42 43 41 39 36 32 30 32 35 42 48 47 46 44 42 44 44 45 46 45 43 41 42 44 45 45 44 47 62 56 52
40 42 41 42 42 41 42 44 41 38 39 40 39 41 43 44 45 41 36 34 32 35 40 44 46 45 43 47 46 47 45 43 42 42 45 49 48 47 43 43 47 57 56
39 39 40 41 41 41 39 35 34 35 37 38 40 44 45 43 41 41 42 45 45 44 44 45 43 38 40 41 48 42 43 44 43 43 44 49 47 43 44 43 45 49 53
36 36 38 39 39 39 34 32 33 33 33 37 41 42 44 44 43 39 40 43 41 42 44 44 43 40 39 41 31 38 35 40 45 42 42 44 45 45 44 45 45 46 47
33 34 36 37 37 36 35 36 31 31 31 32 34 35 39 39 39 38 39 39 39 39 41 42 41 39 38 37 37 29 30 31 39 42 42 42 43 46 45 44 46 48 46
30 32 34 34 35 34 35 36 40 38 35 33 31 31 33 36 38 38 38 36 34 35 38 40 40 39 38 36 32 35 31 31 28 34 37 40 43 47 45 44 47 47 43
27 28 30 31 32 31 32 34 35 37 40 43 38 33 32 32 33 33 33 33 36 33 35 39 40 37 37 31 34 31 34 31 30 30 35 40 44 46 43 45 48 49 45
25 26 27 28 28 27 29 31 34 36 36 39 40 37 34 32 33 32 26 23 29 33 35 34 36 32 27 32 39 35 37 35 33 31 32 37 40 43 45 47 49 49 45
22 23 25 25 25 26 27 30 33 34 34 35 35 35 36 38 35 30 27 25 24 26 28 30 27 28 28 29 31 28 32 36 35 31 34 36 38 42 44 45 45 45 45
20 21 22 22 22 23 24 26 28 29 30 31 31 30 28 29 29 29 29 26 25 26 27 27 17 15 20 21 22 28 29 29 27 29 33 35 36 39 41 41 42 41 41
17 19 19 20 20 19 20 21 24 25 27 28 30 31 29 31 30 29 28 27 25 23 22 22 19 16 13 13 15 18 18 22 25 26 29 31 32 35 37 37 37 38 37
14 15 15 16 16 17 17 18 20 22 24 26 27 30 31 32 32 32 31 29 27 24 21 19 17 15 14 13 11 11 13 17 19 21 22 24 26 28 29 30 31 31 31
13 13 14 14 15 15 16 17 18 19 21 23 25 26 27 28 30 30 31 31 30 27 24 22 20 18 15 12 10 7 5 3 5 8 12 15 18 20 21 23 24 26 28
12 11 12 13 14 14 14 15 17 18 20 21 23 24 25 26 26 27 28 28 28 29 29 29 27 22 19 16 13 11 8 5 3 1 5 9 13 14 16 18 21 23 24
11 11 12 12 12 13 14 15 15 16 18 19 20 21 22 23 24 25 25 26 26 25 25 26 26 25 25 26 25 20 15 12 8 5 4 6 9 12 13 16 19 21 22

GFSGL_850_spd_030.txt.gz
Wind_Speed
6 7 9 11 13 15 17 19 20 21 23 23 26 27 27 28 27 27 25 25 27 26 24 26 27 27 32 36 37 36 38 40 48 50 48 44 43 43 39 36 38 41 42
9 11 13 14 16 18 19 21 23 25 26 28 29 30 31 32 33 33 33 32 31 32 31 30 31 27 27 29 33 39 40 39 43 48 46 48 48 48 45 44 43 43 45
14 15 17 19 20 22 24 25 27 29 30 31 33 34 35 35 36 36 36 39 39 38 35 34 34 33 33 30 30 32 34 37 41 44 47 45 47 48 47 47 46 45 47
16 18 20 21 24 27 28 30 31 32 34 36 37 39 41 41 42 43 42 43 43 43 43 42 40 36 36 36 34 34 33 34 35 40 44 43 43 47 47 49 49 49 47
19 20 23 25 27 29 31 33 35 38 42 45 48 50 51 51 51 50 49 49 50 50 48 48 48 47 42 38 38 38 36 36 36 37 41 41 44 45 49 51 51 50 49
21 23 26 28 30 31 32 35 39 43 46 49 52 54 55 56 54 49 37 41 47 50 53 54 52 52 51 49 44 40 39 39 38 39 40 43 44 42 44 47 48 48 51
21 23 26 30 31 32 36 41 45 48 50 52 52 52 54 55 54 42 35 36 41 48 53 54 56 57 54 53 53 51 46 42 41 40 43 45 43 41 38 42 47 49 54
23 25 28 29 32 36 42 44 46 48 50 52 53 52 54 55 52 48 39 40 45 49 49 51 53 58 58 48 47 51 55 52 48 46 45 46 44 42 41 42 42 43 43
25 28 28 31 36 40 42 45 46 47 49 51 51 52 53 53 48 43 35 40 46 51 51 50 47 49 50 42 41 44 49 56 57 52 50 47 43 39 40 41 45 40 46
25 26 31 36 38 41 41 43 44 45 48 49 51 48 45 43 37 33 29 32 37 40 42 43 40 39 41 40 41 44 48 54 50 52 54 51 47 44 40 44 50 50 51
26 29 33 34 38 39 40 42 43 44 45 47 46 42 38 35 31 28 26 29 34 38 41 42 40 37 39 38 37 42 48 48 46 45 46 50 50 48 47 43 49 53 50
28 33 33 34 35 36 38 40 40 42 43 41 39 39 36 33 32 32 28 29 31 37 43 43 40 35 35 36 39 44 43 41 45 49 47 47 46 50 50 47 44 47 53
31 33 33 34 33 34 36 37 38 38 37 37 36 38 42 41 41 40 35 34 32 35 41 43 41 42 42 42 42 41 43 49 44 46 45 48 49 48 45 42 42 40 44
31 32 32 33 33 34 33 32 33 34 34 34 37 42 42 40 39 38 40 41 44 41 44 47 48 44 40 43 43 43 42 43 47 50 45 43 43 44 44 42 39 38 38
30 31 30 31 32 33 32 29 30 31 29 32 35 37 40 40 39 36 38 39 41 43 44 46 45 44 45 45 44 37 38 40 44 43 49 43 41 36 38 40 42 39 39
29 30 29 29 30 30 31 31 23 27 28 27 28 28 32 33 34 36 36 35 36 37 41 42 41 40 41 43 42 40 37 37 40 32 39 39 33 33 35 43 43 41 41
28 28 28 27 27 28 28 29 34 30 27 27 22 25 26 29 31 32 34 34 34 31 33 37 41 44 43 42 42 41 37 36 32 29 28 25 31 39 40 40 42 43 43
25 24 25 25 25 24 25 26 28 31 33 31 28 28 26 27 30 31 29 28 27 22 23 27 32 37 37 38 39 36 34 31 33 29 26 27 25 30 39 41 41 42 42
23 23 22 22 22 22 21 22 24 26 27 29 30 28 28 33 32 26 24 25 26 27 27 29 31 31 32 29 30 33 31 29 33 37 33 29 28 28 35 37 39 42 43
22 21 21 21 20 19 19 18 20 22 23 25 26 29 31 34 31 31 29 28 27 27 27 28 29 28 26 25 28 32 34 34 28 29 35 33 33 28 29 33 38 41 42
20 19 19 18 18 17 16 16 17 18 20 21 23 24 22 25 28 29 31 30 28 27 27 26 26 26 25 23 21 21 22 26 26 22 26 29 32 26 28 31 35 37 38
19 18 16 16 15 14 13 13 14 16 17 19 20 21 22 24 26 27 28 29 29 28 26 25 24 23 24 23 22 19 17 15 14 17 19 19 20 23 26 29 31 32 33
17 16 14 14 13 13 11 11 12 13 14 16 18 20 21 23 24 25 26 27 27 29 29 28 27 25 22 20 19 18 16 14 12 10 11 11 13 15 18 22 25 26 28
15 15 14 13 12 12 11 11 12 12 13 14 16 17 19 21 22 22 23 25 25 26 26 27 27 27 27 27 21 17 14 12 11 10 8 7 6 7 10 12 16 19 21
15 14 13 13 13 12 11 12 12 12 13 15 16 17 18 19 20 21 22 22 23 24 24 24 25 26 27 27 28 23 18 14 11 9 7 5 2 2 5 8 11 13 15
15 14 14 14 14 14 14 14 14 14 15 16 17 18 19 19 20 20 21 21 22 22 22 22 22 22 23 24 25 25 24 20 17 14 11 8 5 5 5 7 9 11 12

GFSGL_850_spd_033.txt.gz
Wind_Speed
2 4 6 8 10 12 14 16 18 20 22 24 26 27 28 29 30 32 31 31 31 31 31 32 32 29 29 28 26 26 28 32 42 49 48 48 47 44 45 45 42 40 39
4 6 8 10 12 14 15 17 19 21 22 25 27 29 31 33 35 37 39 38 38 40 39 38 37 35 35 32 31 31 31 30 34 41 43 45 46 45 44 44 47 48 46
7 10 13 15 17 19 21 23 24 26 27 28 32 35 37 39 40 42 44 45 45 45 45 45 45 42 41 38 37 36 35 36 36 38 42 39 40 41 42 42 45 47 49
10 13 16 18 20 23 25 26 27 28 31 35 39 43 46 48 49 49 48 47 47 48 48 49 49 48 47 45 42 40 40 40 40 41 43 43 39 38 39 41 43 44 47
15 16 19 21 24 26 28 28 29 32 36 41 44 46 47 48 48 47 46 47 49 51 50 51 51 51 50 47 45 46 44 43 43 45 47 45 45 42 39 39 41 42 45
19 20 23 25 27 29 30 30 33 37 41 43 46 47 47 46 46 47 46 46 48 50 54 55 53 53 53 51 45 38 34 36 42 43 47 49 49 43 40 38 37 38 44
23 23 25 27 29 31 31 33 37 40 43 44 45 47 48 48 47 47 46 46 49 50 50 49 48 47 48 48 48 41 42 44 42 42 45 46 46 47 40 39 39 40 43
24 24 26 28 31 30 32 36 38 40 42 43 45 45 48 49 48 46 42 40 44 44 42 40 38 39 39 38 40 44 46 49 53 48 46 56 54 50 44 44 42 42 42
26 26 28 29 29 31 34 35 38 41 41 42 43 46 47 48 44 40 36 35 36 36 33 30 30 33 30 28 31 36 41 46 43 43 46 47 47 46 42 39 44 43 45
27 27 28 27 29 33 34 36 38 39 40 42 43 42 42 43 39 34 29 30 33 35 35 34 31 29 28 28 31 35 42 43 38 36 40 44 47 50 47 45 46 42 42
27 26 27 27 30 32 33 35 37 39 40 41 42 42 39 36 35 30 27 29 33 37 39 37 37 32 30 30 30 34 38 37 39 42 48 43 45 48 47 48 54 50 44
26 27 27 28 29 30 32 34 35 36 38 39 40 40 37 35 33 35 28 28 30 35 38 39 41 35 33 33 35 39 38 38 41 41 41 46 49 41 45 46 47 50 53
27 27 27 28 28 28 31 32 34 34 36 37 37 38 39 37 39 40 34 30 32 35 40 39 38 38 37 38 38 37 36 39 41 46 47 50 52 53 48 44 47 46 46
28 28 27 28 28 28 29 29 31 31 34 35 36 39 41 39 37 38 37 42 41 41 43 44 44 41 40 40 42 39 40 43 44 45 46 48 45 44 53 44 45 44 43
28 28 27 27 27 28 28 27 28 28 30 30 31 33 35 37 36 33 34 35 36 38 40 41 40 36 34 32 35 39 40 42 45 45 43 42 44 43 44 54 45 44 41
29 27 26 27 27 27 28 29 21 25 25 26 22 22 26 27 29 31 32 33 32 31 31 32 32 31 33 35 39 40 36 38 42 43 42 41 41 44 47 50 39 43 41
28 27 27 27 26 26 27 28 31 20 20 24 22 22 21 23 26 28 28 27 29 26 25 25 26 28 30 32 32 31 32 33 37 39 38 38 38 37 30 37 41 30 31
27 27 27 26 25 25 26 25 25 26 24 20 20 23 22 23 23 25 25 27 24 23 24 25 26 27 29 30 31 32 33 31 33 34 34 30 31 35 27 24 24 28 31
26 25 25 25 24 24 24 23 22 22 21 21 20 18 21 22 25 24 24 27 29 29 28 27 27 27 28 28 29 29 29 30 34 34 27 27 31 32 26 23 22 26 36
25 24 24 23 23 22 22 20 19 19 19 19 20 21 23 25 25 26 26 27 28 29 30 29 29 28 28 27 28 28 29 27 26 26 26 22 26 30 32 28 25 27 30
25 24 23 22 21 21 19 18 17 17 18 18 17 18 17 19 21 22 24 24 25 26 28 29 29 30 30 29 28 28 27 26 23 19 19 23 23 24 28 28 27 21 22
24 22 21 21 20 18 17 16 16 16 16 17 16 15 16 17 18 20 21 23 23 23 24 26 27 28 29 29 29 28 26 24 22 19 16 13 11 13 19 23 23 23 24
23 21 20 19 18 16 15 14 14 15 15 15 16 17 17 17 19 20 21 22 22 23 23 23 25 26 26 27 28 29 27 23 21 19 16 13 12 10 8 7 10 14 18
21 20 19 18 17 16 15 14 14 14 15 15 16 17 18 19 20 20 21 22 22 21 21 22 22 23 25 25 26 28 28 23 18 15 14 12 10 9 7 5 3 5 9
19 18 18 18 17 16 15 15 15 16 17 17 18 19 20 20 21 20 21 21 21 22 21 21 21 22 22 23 23 25 27 25 19 14 12 11 9 8 7 5 2 2 5
17 18 18 18 17 17 16 16 17 17 18 18 19 19 20 20 20 20 21 21 21 21 20 20 19 19 18 19 21 23 23 24 21 18 15 12 10 10 8 7 6 6 6

GFSGL_850_spd_036.txt.gz
Wind_Speed
2 3 5 7 9 10 12 14 16 17 18 19 20 22 24 28 31 34 36 37 38 39 38 38 38 37 37 36 33 32 32 31 36 41 40 37 36 36 35 33 33 35 38
4 4 6 8 10 12 14 15 18 19 20 21 23 26 29 32 35 38 41 43 45 45 44 44 43 41 40 40 39 40 39 38 38 42 43 43 42 37 35 34 34 33 35
8 8 10 12 13 16 18 20 22 23 24 26 29 33 36 39 42 45 46 47 46 46 46 45 45 45 45 43 41 41 42 43 42 42 47 45 45 43 41 38 35 35 35
12 13 14 15 18 20 22 23 25 26 27 28 32 35 38 42 43 44 45 46 46 47 47 48 47 46 46 44 43 42 41 41 43 45 47 47 46 46 45 43 42 36 36
16 17 17 18 20 22 24 26 28 28 29 32 35 37 40 42 42 42 43 45 46 48 49 49 48 45 37 34 35 40 40 40 40 38 36 36 38 42 45 44 43 41 40
20 21 20 19 22 24 27 28 30 30 32 35 37 40 42 42 42 43 44 45 46 46 48 47 47 46 44 34 32 32 33 34 36 37 38 36 39 31 34 40 42 41 42
25 24 22 23 25 26 28 31 32 33 35 36 38 40 41 41 42 44 44 43 44 43 43 42 41 37 35 34 33 32 34 36 35 37 42 44 40 35 33 36 39 41 48
28 27 24 25 28 28 31 32 32 35 35 37 38 39 40 40 41 42 41 40 40 38 37 35 33 33 32 29 30 32 32 31 31 31 33 39 39 41 38 41 44 45 49
29 27 26 27 29 31 32 32 33 34 34 36 38 39 39 39 38 39 38 36 37 37 34 33 31 32 29 26 29 33 35 36 34 32 33 33 34 36 36 41 45 38 46
29 29 29 29 29 32 32 32 34 34 34 36 37 37 37 38 36 35 33 32 34 34 34 36 34 29 28 28 31 34 39 39 37 34 32 33 35 36 36 35 40 42 47
31 32 30 28 29 31 32 32 33 33 33 35 37 37 35 34 36 34 29 28 31 34 37 37 37 36 30 29 29 32 36 35 38 41 43 37 34 39 42 40 40 40 44
33 31 29 29 29 32 32 32 31 31 33 34 36 36 35 33 32 31 27 25 27 32 38 40 41 37 35 36 37 39 38 36 39 41 46 47 44 45 44 42 42 41 42
32 31 30 30 31 31 31 30 29 28 31 33 34 35 35 34 33 31 28 31 31 32 35 37 36 36 34 34 33 34 33 35 39 41 43 44 44 44 44 44 43 46 46
33 32 31 31 30 30 31 28 28 26 29 31 32 33 34 33 32 30 34 36 36 37 38 36 40 38 34 29 27 28 30 33 36 41 44 44 44 43 44 41 42 42 41
32 32 31 31 31 30 29 27 26 24 27 28 29 29 28 29 27 26 29 32 32 33 34 35 32 31 29 27 26 26 26 27 28 31 35 38 39 40 42 39 40 42 42
32 32 31 31 30 29 29 26 22 24 24 24 23 20 22 21 21 23 26 26 29 29 31 31 30 28 28 29 29 29 28 28 27 28 30 34 40 41 41 39 38 41 43
32 31 31 30 28 28 27 27 27 20 20 22 21 19 19 18 19 20 23 24 26 26 26 27 28 28 29 28 29 29 30 30 31 31 33 33 32 35 35 34 36 42 30
31 31 29 28 28 28 26 25 25 25 26 18 19 21 19 21 19 18 21 23 23 23 26 27 28 29 29 30 30 30 30 30 29 29 30 31 32 31 30 32 36 34 31
30 29 27 28 28 27 26 25 24 24 24 23 17 16 17 19 16 16 18 20 22 24 25 26 27 28 30 31 31 31 31 31 31 30 29 29 27 26 27 28 29 28 27
29 28 28 29 27 26 25 24 23 23 22 20 18 17 16 20 16 17 18 20 21 23 24 26 26 27 28 30 32 32 33 33 32 31 30 27 25 25 26 24 26 28 28
29 29 28 28 26 24 24 23 22 21 19 18 17 16 15 17 18 18 20 20 21 22 24 24 25 26 27 29 31 32 33 35 34 31 30 28 25 23 21 22 24 25 26
30 29 28 27 24 24 23 22 20 19 18 18 16 14 16 16 16 17 18 19 20 21 22 24 24 24 25 26 29 30 32 35 37 32 30 27 24 23 20 17 15 14 16
29 28 26 25 24 23 22 21 19 18 18 17 17 17 16 17 17 18 20 20 21 21 21 22 23 24 22 23 24 26 28 33 37 31 27 25 22 21 19 16 13 10 9
28 27 26 24 23 22 20 19 19 18 18 18 18 19 19 20 20 20 21 21 21 21 21 22 22 22 22 21 22 25 24 28 33 28 23 21 19 17 15 13 11 9 7
23 22 22 21 21 20 19 19 19 19 20 20 20 20 20 21 20 20 20 20 20 20 20 20 20 21 20 20 20 23 22 25 28 25 22 19 17 15 13 12 10 8 7
18 19 19 19 20 20 20 20 20 20 20 19 19 19 20 19 19 20 20 20 20 19 19 18 18 18 18 17 17 19 20 22 24 22 21 20 18 16 15 13 11 10 9

GFSGL_850_spd_042.txt.gz
Wind_Speed
15 13 12 9 8 6 4 2 3 6 8 10 12 13 15 16 18 20 21 23 25 27 29 31 33 34 34 33 33 32 30 25 30 45 35 36 44 43 45 44 45 43 44
16 15 14 12 9 7 5 4 6 8 11 13 14 16 17 19 20 22 24 26 28 30 32 33 34 35 35 34 32 32 30 28 29 39 44 33 33 39 41 43 43 45 44
20 19 17 14 12 10 8 7 8 10 12 15 17 19 20 21 22 23 25 26 28 30 32 34 35 36 36 35 33 33 32 29 29 34 45 36 35 33 37 36 36 38 39
23 22 20 17 15 13 11 11 10 13 15 17 19 20 21 22 23 25 27 28 30 31 33 35 36 36 37 37 36 32 30 29 28 31 38 40 33 31 30 33 34 28 27
26 26 24 21 19 18 15 14 14 15 16 18 20 21 22 23 24 26 28 29 31 32 34 35 36 37 38 36 32 30 27 29 29 32 36 37 36 31 27 24 30 34 38
29 28 26 24 23 21 20 19 18 18 18 19 21 23 24 25 26 27 28 29 31 33 35 36 36 36 34 33 29 25 25 29 32 33 36 35 34 30 30 32 33 34 41
30 28 28 27 27 26 24 23 23 21 20 20 23 25 26 27 27 28 28 30 31 32 33 35 36 33 32 29 27 26 25 24 26 30 35 34 35 30 29 31 31 32 35
27 28 29 31 30 30 29 28 27 24 21 22 24 26 28 27 28 29 29 30 32 32 33 33 33 32 30 27 28 32 34 30 30 30 31 34 34 33 32 34 37 38 37
26 27 29 30 32 32 32 31 29 27 24 23 26 27 29 28 28 29 29 30 32 33 33 33 30 29 27 28 32 36 38 41 42 40 36 36 34 33 32 34 37 36 37
26 26 24 26 28 30 31 31 30 28 27 26 27 28 29 30 28 28 29 30 31 31 31 30 27 26 27 29 33 37 42 35 32 37 39 40 37 33 28 28 32 36 39
23 24 25 25 26 29 31 32 30 29 28 29 29 30 31 31 30 29 28 28 28 28 27 27 26 26 28 32 33 36 39 37 37 37 37 38 36 34 33 32 31 32 36
23 24 25 25 26 30 32 31 30 30 30 30 31 32 32 30 30 29 27 27 24 25 25 25 27 28 34 33 34 33 29 30 33 31 30 29 26 27 30 29 28 30 35
27 27 29 30 29 30 31 31 30 30 31 31 32 33 32 31 29 27 25 24 24 22 23 25 32 36 33 32 30 30 31 28 26 27 26 27 25 27 27 28 28 29 32
31 32 32 32 31 30 31 31 31 31 32 32 33 33 31 30 30 28 24 23 22 21 27 35 33 30 29 29 27 25 25 24 24 24 24 26 27 28 28 26 28 30 28
31 31 30 31 31 30 30 31 31 31 31 32 32 30 29 30 29 28 19 18 20 24 30 32 28 28 28 27 26 25 24 24 23 22 24 25 26 26 27 25 28 27 26
28 28 29 29 29 30 31 31 31 31 32 33 32 31 30 31 28 23 17 17 20 29 29 27 25 25 25 26 26 27 25 26 25 27 26 25 26 26 27 26 26 25 28
25 26 27 29 29 29 30 31 32 32 33 33 32 31 30 28 26 21 17 16 25 25 22 23 23 23 23 24 24 25 26 26 27 28 28 27 25 26 27 27 28 24 28
23 24 25 27 28 29 31 32 33 33 34 31 30 30 29 27 27 20 16 19 22 20 20 21 22 22 22 23 23 24 25 26 26 28 30 28 26 28 29 29 29 28 27
20 22 23 26 28 30 32 33 34 34 34 34 29 26 27 27 27 24 19 21 20 20 21 21 21 22 23 23 24 24 24 25 26 28 30 30 27 28 30 29 28 28 29
21 23 26 28 30 32 33 34 34 34 33 33 32 25 24 26 25 23 21 20 20 21 22 23 23 23 24 23 24 24 24 24 25 27 29 30 29 30 29 28 27 28 28
20 22 25 28 30 31 33 34 34 34 33 32 30 26 23 23 24 25 21 20 20 21 22 23 24 24 23 23 23 24 23 22 23 26 29 30 30 31 29 27 26 25 26
20 23 25 28 30 31 32 32 32 32 32 30 28 25 23 24 24 24 22 20 20 21 23 23 23 23 22 22 22 22 22 20 21 24 27 28 30 29 28 26 25 24 23
21 23 25 26 27 28 28 28 29 29 29 28 27 25 23 23 23 23 22 21 21 22 22 22 22 21 21 20 20 21 20 18 18 22 26 27 28 27 26 25 24 23 22
19 20 22 22 22 22 24 25 25 26 26 25 24 23 22 21 21 22 22 22 22 22 21 20 21 20 19 18 18 18 17 15 15 20 22 25 24 24 23 23 22 21 21
16 16 16 17 17 18 18 19 20 21 21 21 21 20 21 21 22 22 22 22 21 21 19 19 20 20 19 18 18 17 15 13 11 17 22 20 19 19 20 21 21 21 20
13 14 15 16 16 16 17 18 19 19 19 19 20 20 20 21 21 21 21 21 21 21 20 20 20 20 19 18 17 16 15 13 10 11 19 15 15 17 18 19 19 19 19

GFSGL_850_spd_045.txt.gz
Wind_Speed
19 18 16 15 15 13 11 8 7 5 3 5 7 10 12 14 14 15 16 18 19 20 21 23 25 27 28 30 30 31 30 27 32 51 44 43 43 45 47 45 44 46 47
21 20 19 19 17 15 12 10 8 5 5 5 8 11 13 15 16 17 18 19 21 22 24 25 27 28 30 31 32 33 34 34 31 42 51 45 38 39 43 45 44 43 43
24 23 23 22 20 17 14 12 10 7 6 7 9 12 14 17 18 19 19 20 21 23 24 26 28 30 32 33 35 36 36 34 33 32 49 43 41 36 36 37 39 43 38
25 25 26 24 21 19 16 15 12 10 9 9 11 13 15 18 19 20 21 22 23 24 25 27 28 30 31 33 35 36 35 36 36 34 40 43 38 36 32 33 35 34 38
27 28 29 27 25 23 20 18 15 13 13 13 14 15 16 18 21 22 23 23 24 25 26 27 28 30 32 34 35 36 35 34 32 34 38 38 36 36 33 34 36 39 39
31 31 30 30 29 26 22 21 19 18 18 17 17 17 17 18 20 23 24 25 26 26 27 28 29 31 32 33 34 31 25 28 32 34 37 36 39 38 37 35 33 37 40
33 32 31 32 30 27 25 24 24 23 23 22 21 21 19 19 21 23 25 27 28 28 28 29 31 31 32 32 33 31 31 28 28 32 38 39 41 38 38 39 36 37 38
33 33 31 30 30 30 29 28 28 28 27 26 26 24 23 21 23 24 26 28 29 29 29 29 30 31 31 31 32 34 35 37 37 36 39 43 42 41 41 44 45 45 44
29 31 29 30 31 32 31 31 30 30 30 29 29 28 26 24 24 26 28 29 30 30 30 29 29 31 30 24 28 33 36 39 37 33 34 39 40 38 37 38 39 39 40
25 25 26 28 29 30 30 31 30 31 31 31 31 29 28 27 27 28 29 30 31 31 30 28 28 24 22 23 28 35 39 40 38 36 37 38 35 34 27 30 34 38 38
19 21 23 24 26 26 28 29 31 32 32 32 31 30 30 30 29 29 30 30 30 30 30 30 29 22 22 25 28 30 32 32 37 37 36 34 31 29 25 23 26 29 34
19 22 23 24 26 28 28 30 30 31 32 32 31 32 32 31 31 31 31 31 29 29 30 30 28 21 26 29 29 29 29 29 31 32 32 31 30 28 27 28 28 28 33
21 23 25 27 28 30 32 32 31 31 31 32 33 33 33 33 33 32 31 30 30 28 28 26 24 30 32 30 27 26 27 27 27 29 30 30 29 30 30 30 28 28 29
24 25 28 31 31 32 33 34 33 32 32 32 33 34 33 33 33 32 31 27 25 25 24 28 30 31 30 28 26 24 24 24 25 26 27 30 30 30 29 28 28 28 30
29 28 30 32 33 33 33 33 34 33 32 32 34 33 34 35 33 32 32 26 24 21 25 32 32 31 27 26 25 24 24 23 24 25 28 28 31 30 29 27 27 29 28
35 33 32 32 33 32 32 33 33 33 33 34 35 36 36 36 35 31 23 21 19 26 31 32 32 28 25 25 24 24 24 24 24 26 26 28 31 30 29 28 28 29 28
35 35 32 30 30 30 29 30 32 32 34 35 36 37 37 36 30 24 23 22 21 31 32 30 30 26 24 23 24 24 24 24 24 25 26 28 30 29 28 30 32 31 31
27 28 27 26 25 26 27 29 31 33 35 37 37 37 36 36 32 27 25 22 29 32 30 28 26 25 24 24 24 24 25 25 25 25 26 27 29 29 28 30 32 31 31
22 22 21 21 22 24 26 28 30 33 35 37 38 38 35 33 33 31 23 28 33 33 27 27 25 24 24 24 24 25 25 25 24 24 25 26 28 29 29 30 31 30 29
16 18 19 21 23 25 27 29 31 33 35 36 37 38 35 34 32 33 32 32 32 29 27 26 25 24 23 24 25 25 24 23 22 22 23 24 27 28 28 30 30 30 29
17 18 19 21 23 25 28 29 31 33 35 36 37 35 33 30 31 31 30 31 29 27 26 25 25 24 23 24 24 23 23 22 20 20 21 23 25 27 27 29 29 28 28
15 17 19 21 22 23 25 27 28 30 32 34 35 34 29 27 28 27 28 31 26 24 24 24 24 23 23 23 23 22 22 20 18 17 19 22 23 24 26 28 28 27 27
15 16 17 18 20 21 23 24 26 27 28 29 29 30 30 29 27 27 30 29 25 23 23 24 25 23 22 22 21 20 21 18 16 16 18 21 21 22 24 25 26 27 26
14 15 16 17 19 20 21 22 22 22 24 25 24 25 26 25 24 24 24 25 23 23 24 24 24 22 21 21 20 19 19 17 16 13 15 18 20 20 21 21 22 23 24
14 15 15 16 17 18 19 19 20 22 22 22 22 22 22 21 22 22 22 23 23 23 23 23 22 21 21 21 19 19 18 17 16 14 14 15 17 17 16 18 20 22 22
14 15 16 17 17 18 19 20 20 21 21 21 21 20 20 20 21 21 21 22 22 22 21 21 21 21 22 21 19 19 18 16 16 14 15 14 14 13 13 16 18 20 21

GFSGL_850_spd_048.txt.gz
Wind_Speed
27 24 21 18 16 16 15 13 11 9 6 5 4 4 6 10 11 13 13 13 14 14 16 17 17 19 21 23 24 25 27 27 32 49 44 47 48 47 46 45 44 43 41
27 24 22 20 20 17 16 15 13 10 8 6 4 5 8 9 10 12 14 15 16 17 17 18 19 21 22 24 25 28 30 31 32 43 49 49 48 46 44 43 42 40 39
28 25 24 23 21 19 18 17 15 13 11 8 6 7 7 9 12 14 15 16 17 18 19 20 21 22 23 24 27 29 31 34 35 40 50 47 47 45 44 39 38 39 38
30 27 25 24 22 22 20 19 17 15 12 10 9 9 9 10 12 13 14 17 19 21 21 22 22 23 25 27 29 31 34 35 37 41 45 47 46 44 39 39 45 41 42
32 29 27 25 25 24 23 21 19 16 15 14 12 12 12 12 13 14 15 17 19 22 23 24 24 25 26 28 30 31 32 35 37 39 42 43 44 42 38 39 40 44 45
32 29 28 28 28 27 25 24 22 21 19 18 17 16 16 16 16 16 16 18 20 23 25 25 26 26 27 28 29 30 28 28 33 34 38 38 44 43 44 41 44 44 49
31 30 30 29 30 29 27 26 26 24 22 22 21 20 20 20 20 20 21 21 23 25 26 27 27 28 29 29 30 29 31 32 26 30 36 38 43 41 42 46 46 46 49
31 30 31 31 31 29 29 28 28 27 25 24 24 25 25 24 24 23 24 24 26 27 28 28 28 29 29 30 30 32 33 35 36 34 34 38 39 40 41 42 42 46 45
29 29 30 31 30 29 29 29 29 28 27 27 27 28 28 26 26 26 27 28 28 29 29 29 30 30 28 29 25 30 35 39 35 34 34 31 33 35 34 35 37 39 41
26 24 25 27 29 28 28 28 28 29 28 29 29 29 28 28 27 28 29 30 31 30 31 31 31 29 28 21 22 29 37 35 36 37 36 35 33 32 30 25 26 31 33
19 20 21 22 23 24 25 27 28 29 30 31 30 29 29 29 29 29 30 31 31 31 32 32 31 29 27 20 20 28 30 28 33 33 34 33 32 30 28 26 25 29 35
17 18 17 17 19 21 23 25 27 30 31 31 31 30 30 31 31 31 31 30 30 33 33 32 31 28 23 23 24 30 26 26 29 30 31 31 31 32 32 30 29 27 27
19 19 19 20 22 23 25 26 28 30 32 32 33 33 33 31 32 31 31 30 30 32 33 32 29 22 26 31 31 27 26 25 26 27 28 28 29 31 33 32 29 28 28
23 22 22 24 26 27 28 29 30 32 33 35 36 36 33 31 32 31 31 31 31 32 31 31 30 30 29 30 31 27 24 23 24 25 26 27 28 29 31 32 31 30 31
26 28 27 28 29 29 29 30 31 32 32 33 33 32 32 33 31 31 33 35 33 31 30 33 33 32 33 34 30 25 23 22 22 23 24 26 28 30 31 30 29 30 31
25 30 31 30 29 29 29 30 32 33 33 32 32 32 31 31 32 33 32 32 28 24 26 35 37 36 36 35 30 26 22 22 22 24 24 25 27 29 31 31 29 29 32
25 26 30 32 32 31 32 32 30 28 28 27 26 27 29 30 26 24 25 26 27 27 34 38 38 37 36 33 28 25 24 22 23 24 24 23 25 27 29 31 31 29 31
24 26 26 27 28 28 26 25 25 26 25 26 28 29 31 32 33 32 28 26 30 32 41 40 38 37 35 30 27 25 24 23 23 23 23 21 22 24 27 29 29 29 31
22 23 23 22 21 21 21 21 22 24 26 28 29 30 31 33 34 33 28 28 33 36 39 40 39 36 34 28 25 24 24 24 23 22 21 20 20 23 25 26 27 27 30
19 19 18 18 17 18 19 21 22 24 26 28 31 32 33 36 37 35 31 31 33 36 39 41 39 35 31 26 24 24 24 22 21 19 19 17 17 20 23 24 25 28 29
16 15 15 16 17 18 19 20 22 25 27 29 30 30 29 27 32 35 34 31 30 31 30 31 31 29 27 24 23 23 23 21 19 18 17 15 16 19 19 21 23 26 27
15 14 14 15 16 17 18 19 21 23 24 25 25 25 24 25 26 27 29 30 28 26 26 26 25 25 23 22 22 23 22 20 16 17 16 14 14 16 17 19 21 24 25
13 13 13 14 15 16 17 17 18 19 19 21 22 23 23 22 22 23 23 23 24 29 31 27 25 23 21 21 21 22 21 18 15 17 15 14 12 13 14 16 19 22 24
11 11 12 13 14 15 16 16 17 17 18 19 19 19 20 20 20 20 20 21 21 20 20 22 22 22 22 20 20 20 20 18 16 15 15 15 13 12 12 12 16 18 21
10 11 12 13 14 15 15 16 16 17 17 18 19 19 19 19 19 19 19 19 19 19 19 20 21 21 21 19 20 19 19 19 18 15 15 16 15 13 10 11 13 16 18
11 11 12 12 12 13 14 15 16 17 17 18 19 19 19 20 20 20 19 20 20 20 20 20 20 19 19 20 19 19 19 19 18 16 16 17 17 14 11 12 12 14 17